| time (UTC) | temp F | wind direction | speed MPH | gust MPH | rain 1hr in | rain 24hr in | rain mn in | humidity % | barometer mb |
| 20260506123529 | 58 | 0.0 | 0.0 | 0.00 | 0.00 | 0.00 | 52 | 1017.2 | |
| 20260506123029 | 58 | 0.0 | 0.0 | 0.00 | 0.00 | 0.00 | 51 | 1017.3 | |
| 20260506122529 | 59 | 0.0 | 0.0 | 0.00 | 0.00 | 0.00 | 52 | 1017.1 | |
| 20260506122030 | 59 | 0.0 | 0.0 | 0.00 | 0.00 | 0.00 | 52 | 1017.0 | |
| 20260506121529 | 58 | 0.0 | 0.0 | 0.00 | 0.00 | 0.00 | 53 | 1017.1 | |
| 20260506121029 | 58 | 0.0 | 0.0 | 0.00 | 0.00 | 0.00 | 52 | 1017.1 | |
| 20260506120529 | 58 | 0.0 | 0.0 | 0.00 | 0.00 | 0.00 | 52 | 1017.3 | |
| 20260506120029 | 58 | 0.0 | 0.0 | 0.00 | 0.00 | 0.00 | 54 | 1017.4 | |
| 20260506115529 | 58 | 0.0 | 0.0 | 0.00 | 0.00 | 0.00 | 55 | 1017.5 | |
| 20260506115029 | 57 | 0.0 | 0.0 | 0.00 | 0.00 | 0.00 | 55 | 1017.2 | |
| 20260506114529 | 57 | 0.0 | 0.0 | 0.00 | 0.00 | 0.00 | 53 | 1017.5 | |
| 20260506114029 | 58 | 0.0 | 0.0 | 0.00 | 0.00 | 0.00 | 54 | 1017.6 | |
| 20260506113529 | 58 | 0.0 | 0.0 | 0.00 | 0.00 | 0.00 | 54 | 1017.3 | |
| 20260506113029 | 58 | 0.0 | 0.0 | 0.00 | 0.00 | 0.00 | 55 | 1017.7 | |
| 20260506112529 | 57 | 0.0 | 0.0 | 0.00 | 0.00 | 0.00 | 56 | 1017.8 | |
| 20260506112029 | 57 | 0.0 | 0.0 | 0.00 | 0.00 | 0.00 | 56 | 1017.8 | |
| 20260506111529 | 57 | 0.0 | 0.0 | 0.00 | 0.00 | 0.00 | 57 | 1017.7 | |
| 20260506111029 | 56 | 0.0 | 0.0 | 0.00 | 0.00 | 0.00 | 58 | 1017.7 | |
| 20260506110529 | 56 | 0.0 | 0.0 | 0.00 | 0.00 | 0.00 | 56 | 1017.7 | |
| 20260506110029 | 56 | 0.0 | 0.0 | 0.00 | 0.00 | 0.00 | 58 | 1017.9 | |
| 20260506105529 | 56 | 0.0 | 0.0 | 0.00 | 0.00 | 0.00 | 58 | 1017.8 | |
| 20260506105029 | 56 | 0.0 | 0.0 | 0.00 | 0.00 | 0.00 | 59 | 1017.6 | |
| 20260506104529 | 56 | 0.0 | 0.0 | 0.00 | 0.00 | 0.00 | 59 | 1017.9 | |
| 20260506104029 | 55 | 0.0 | 0.0 | 0.00 | 0.00 | 0.00 | 59 | 1018.0 | |
| 20260506103529 | 55 | 0.0 | 0.0 | 0.00 | 0.00 | 0.00 | 60 | 1018.2 | |
| 20260506103029 | 55 | 0.0 | 0.0 | 0.00 | 0.00 | 0.00 | 59 | 1018.2 | |
| 20260506102529 | 55 | 0.0 | 0.0 | 0.00 | 0.00 | 0.00 | 60 | 1017.9 | |
| 20260506102029 | 55 | 0.0 | 0.0 | 0.00 | 0.00 | 0.00 | 61 | 1018.1 | |
| 20260506101529 | 55 | 0.0 | 0.0 | 0.00 | 0.00 | 0.00 | 61 | 1017.6 | |
| 20260506101029 | 54 | 0.0 | 0.0 | 0.00 | 0.00 | 0.00 | 61 | 1017.8 | |
| 20260506100529 | 54 | 0.0 | 0.0 | 0.00 | 0.00 | 0.00 | 61 | 1018.0 | |
| 20260506100029 | 54 | 0.0 | 0.0 | 0.00 | 0.00 | 0.00 | 61 | 1018.0 | |
| 20260506095529 | 53 | 0.0 | 0.0 | 0.00 | 0.00 | 0.00 | 61 | 1018.0 | |
| 20260506095029 | 53 | 0.0 | 0.0 | 0.00 | 0.00 | 0.00 | 62 | 1018.1 | |
| 20260506094529 | 53 | 0.0 | 0.0 | 0.00 | 0.00 | 0.00 | 62 | 1017.9 | |
| 20260506094029 | 53 | 0.0 | 0.0 | 0.00 | 0.00 | 0.00 | 61 | 1018.1 | |
| 20260506093529 | 54 | 0.0 | 0.0 | 0.00 | 0.00 | 0.00 | 62 | 1018.1 | |
| 20260506093029 | 53 | 0.0 | 0.0 | 0.00 | 0.00 | 0.00 | 63 | 1018.1 | |
| 20260506092529 | 53 | 0.0 | 0.0 | 0.00 | 0.00 | 0.00 | 63 | 1018.0 | |
| 20260506092029 | 52 | 0.0 | 0.0 | 0.00 | 0.00 | 0.00 | 63 | 1018.1 | |
| 20260506091529 | 52 | 0.0 | 0.0 | 0.00 | 0.00 | 0.00 | 63 | 1018.1 | |
| 20260506091029 | 52 | 156 | 2.0 | 2.0 | 0.00 | 0.00 | 0.00 | 64 | 1018.3 |
| 20260506090529 | 53 | 156 | 2.0 | 2.0 | 0.00 | 0.00 | 0.00 | 64 | 1018.1 |
| 20260506090029 | 52 | 106 | 4.0 | 6.0 | 0.00 | 0.00 | 0.00 | 63 | 1018.3 |
| 20260506085529 | 52 | 136 | 2.0 | 2.0 | 0.00 | 0.00 | 0.00 | 62 | 1018.0 |
| 20260506085029 | 54 | 136 | 2.0 | 2.0 | 0.00 | 0.00 | 0.00 | 63 | 1018.3 |
| 20260506084529 | 55 | 99 | 4.0 | 4.0 | 0.00 | 0.00 | 0.00 | 63 | 1018.3 |
| 20260506084029 | 55 | 0.0 | 0.0 | 0.00 | 0.00 | 0.00 | 65 | 1018.3 | |
| 20260506083529 | 54 | 0.0 | 0.0 | 0.00 | 0.00 | 0.00 | 66 | 1018.2 | |
| 20260506083029 | 53 | 0.0 | 0.0 | 0.00 | 0.00 | 0.00 | 67 | 1018.5 | |
| 20260506082529 | 52 | 0.0 | 0.0 | 0.00 | 0.00 | 0.00 | 67 | 1018.3 | |
| 20260506082029 | 51 | 0.0 | 0.0 | 0.00 | 0.00 | 0.00 | 68 | 1018.4 | |
| 20260506081529 | 51 | 0.0 | 0.0 | 0.00 | 0.00 | 0.00 | 69 | 1018.3 | |
| 20260506081029 | 50 | 0.0 | 0.0 | 0.00 | 0.00 | 0.00 | 70 | 1018.2 | |
| 20260506080529 | 49 | 74 | 2.0 | 2.0 | 0.00 | 0.00 | 0.00 | 70 | 1018.4 |
| 20260506073529 | 47 | 81 | 3.0 | 3.0 | 0.00 | 0.00 | 0.00 | 70 | 1018.4 |
| 20260506073029 | 47 | 81 | 2.0 | 2.0 | 0.00 | 0.00 | 0.00 | 70 | 1018.2 |
| 20260506072529 | 46 | 98 | 0.0 | 0.0 | 0.00 | 0.00 | 0.00 | 71 | 1018.2 |
| 20260506072029 | 46 | 92 | 1.0 | 1.0 | 0.00 | 0.00 | 0.00 | 72 | 1018.3 |
| 20260506071529 | 46 | 63 | 0.0 | 1.0 | 0.00 | 0.00 | 0.00 | 72 | 1018.3 |
| 20260506071029 | 46 | 0.0 | 0.0 | 0.00 | 0.00 | 0.00 | 73 | 1018.4 | |
| 20260506070529 | 45 | 0.0 | 0.0 | 0.00 | 0.00 | 0.00 | 73 | 1018.2 | |
| 20260506062029 | 43 | 125 | 1.0 | 1.0 | 0.00 | 0.00 | 0.00 | 74 | 1018.0 |
| 20260506061529 | 42 | 127 | 0.0 | 0.0 | 0.00 | 0.00 | 0.00 | 74 | 1018.2 |
| 20260506061028 | 42 | 152 | 0.0 | 0.0 | 0.00 | 0.00 | 0.00 | 74 | 1018.1 |
| 20260506060528 | 42 | 152 | 0.0 | 0.0 | 0.00 | 0.00 | 0.00 | 74 | 1018.3 |
| 20260506051028 | 41 | 0.0 | 0.0 | 0.00 | 0.00 | 0.00 | 74 | 1018.2 | |
| 20260506050528 | 41 | 0.0 | 0.0 | 0.00 | 0.00 | 0.00 | 74 | 1018.2 | |
| 20260506045028 | 40 | 0.0 | 0.0 | 0.00 | 0.00 | 0.00 | 74 | 1018.0 | |
| 20260506044528 | 40 | 0.0 | 0.0 | 0.00 | 0.00 | 0.00 | 74 | 1018.0 | |
| 20260506044028 | 40 | 0.0 | 0.0 | 0.00 | 0.00 | 0.00 | 74 | 1018.1 | |
| 20260506043529 | 39 | 0.0 | 0.0 | 0.00 | 0.00 | 0.00 | 74 | 1018.1 | |
| 20260506043028 | 39 | 0.0 | 0.0 | 0.00 | 0.00 | 0.00 | 74 | 1018.2 | |
| 20260506042528 | 39 | 0.0 | 0.0 | 0.00 | 0.00 | 0.00 | 74 | 1018.1 | |
| 20260506042028 | 39 | 0.0 | 0.0 | 0.00 | 0.00 | 0.00 | 74 | 1018.0 | |
| 20260506041528 | 39 | 0.0 | 0.0 | 0.00 | 0.00 | 0.00 | 74 | 1018.2 | |
| 20260506041028 | 39 | 0.0 | 0.0 | 0.00 | 0.00 | 0.00 | 74 | 1017.9 | |
| 20260506040528 | 40 | 0.0 | 0.0 | 0.00 | 0.00 | 0.00 | 74 | 1018.1 | |
| 20260506040028 | 40 | 0.0 | 0.0 | 0.00 | 0.00 | 0.00 | 74 | 1018.0 | |
| 20260506035528 | 39 | 0.0 | 0.0 | 0.00 | 0.00 | 0.00 | 74 | 1017.9 | |
| 20260506035028 | 40 | 0.0 | 0.0 | 0.00 | 0.00 | 0.00 | 73 | 1018.1 | |
| 20260506034528 | 40 | 0.0 | 0.0 | 0.00 | 0.00 | 0.00 | 73 | 1018.2 | |
| 20260506034028 | 40 | 0.0 | 0.0 | 0.00 | 0.00 | 0.00 | 73 | 1018.1 | |
| 20260506033528 | 40 | 0.0 | 0.0 | 0.00 | 0.00 | 0.00 | 73 | 1018.2 | |
| 20260506033028 | 40 | 0.0 | 0.0 | 0.00 | 0.00 | 0.00 | 73 | 1018.2 | |
| 20260506032528 | 40 | 0.0 | 0.0 | 0.00 | 0.00 | 0.00 | 73 | 1018.3 | |
| 20260506032028 | 40 | 0.0 | 0.0 | 0.00 | 0.00 | 0.00 | 73 | 1018.2 | |
| 20260506031528 | 40 | 0.0 | 0.0 | 0.00 | 0.00 | 0.00 | 73 | 1018.4 | |
| 20260506031028 | 40 | 0.0 | 0.0 | 0.00 | 0.00 | 0.00 | 73 | 1018.4 | |
| 20260506030528 | 40 | 0.0 | 0.0 | 0.00 | 0.00 | 0.00 | 73 | 1018.3 | |
| 20260506030028 | 40 | 0.0 | 0.0 | 0.00 | 0.00 | 0.00 | 72 | 1018.4 | |
| 20260506025528 | 40 | 0.0 | 0.0 | 0.00 | 0.00 | 0.00 | 72 | 1018.3 | |
| 20260506025028 | 41 | 0.0 | 0.0 | 0.00 | 0.00 | 0.00 | 71 | 1018.3 | |
| 20260506024528 | 41 | 0.0 | 0.0 | 0.00 | 0.00 | 0.00 | 71 | 1018.3 | |
| 20260506024028 | 41 | 0.0 | 0.0 | 0.00 | 0.00 | 0.00 | 71 | 1018.3 | |
| 20260506023528 | 41 | 0.0 | 0.0 | 0.00 | 0.00 | 0.00 | 71 | 1018.2 | |
| 20260506023028 | 42 | 0.0 | 0.0 | 0.00 | 0.00 | 0.00 | 72 | 1018.0 | |
| 20260506022528 | 42 | 0.0 | 0.0 | 0.00 | 0.00 | 0.00 | 72 | 1018.3 | |
| 20260506022028 | 41 | 0.0 | 0.0 | 0.00 | 0.00 | 0.00 | 72 | 1018.3 | |
| 20260506021528 | 41 | 0.0 | 0.0 | 0.00 | 0.00 | 0.00 | 72 | 1018.4 | |
| 20260506021028 | 41 | 0.0 | 0.0 | 0.00 | 0.00 | 0.00 | 71 | 1018.3 | |
| 20260506020528 | 41 | 0.0 | 0.0 | 0.00 | 0.00 | 0.00 | 71 | 1018.4 | |
| 20260506020028 | 42 | 0.0 | 0.0 | 0.00 | 0.00 | 0.00 | 71 | 1018.2 | |
| 20260506015528 | 41 | 0.0 | 0.0 | 0.00 | 0.00 | 0.00 | 71 | 1018.4 | |
| 20260506015028 | 42 | 0.0 | 0.0 | 0.00 | 0.00 | 0.00 | 71 | 1018.2 | |
| 20260506014528 | 42 | 0.0 | 0.0 | 0.00 | 0.00 | 0.00 | 71 | 1018.6 | |
| 20260506014028 | 41 | 0.0 | 0.0 | 0.00 | 0.00 | 0.00 | 71 | 1018.3 | |
| 20260506013528 | 41 | 0.0 | 0.0 | 0.00 | 0.00 | 0.00 | 71 | 1018.6 | |
| 20260506013028 | 41 | 0.0 | 0.0 | 0.00 | 0.00 | 0.00 | 71 | 1018.8 | |
| 20260506012528 | 41 | 0.0 | 0.0 | 0.00 | 0.00 | 0.00 | 71 | 1018.7 | |
| 20260506012028 | 41 | 0.0 | 0.0 | 0.00 | 0.00 | 0.00 | 71 | 1018.8 | |
| 20260506011528 | 41 | 0.0 | 0.0 | 0.00 | 0.00 | 0.00 | 70 | 1018.6 | |
| 20260506011028 | 41 | 0.0 | 0.0 | 0.00 | 0.00 | 0.00 | 70 | 1018.8 | |
| 20260506010528 | 41 | 0.0 | 0.0 | 0.00 | 0.00 | 0.00 | 69 | 1018.7 | |
| 20260506010028 | 41 | 0.0 | 0.0 | 0.00 | 0.00 | 0.00 | 69 | 1018.8 | |
| 20260506005527 | 42 | 69 | 0.0 | 0.0 | 0.00 | 0.00 | 0.00 | 68 | 1018.8 |
| 20260506005027 | 42 | 69 | 0.0 | 0.0 | 0.00 | 0.00 | 0.00 | 68 | 1018.8 |
| 20260506004527 | 42 | 74 | 0.0 | 0.0 | 0.00 | 0.00 | 0.00 | 67 | 1018.7 |
| 20260506004027 | 42 | 79 | 0.0 | 0.0 | 0.00 | 0.00 | 0.00 | 67 | 1018.8 |
| 20260506003527 | 43 | 81 | 4.0 | 4.0 | 0.00 | 0.00 | 0.00 | 67 | 1018.7 |
| 20260506003027 | 43 | 81 | 4.0 | 4.0 | 0.00 | 0.00 | 0.00 | 66 | 1018.6 |
| 20260506002527 | 43 | 75 | 3.0 | 4.0 | 0.00 | 0.00 | 0.00 | 66 | 1018.7 |
| 20260506002027 | 43 | 87 | 1.0 | 2.0 | 0.00 | 0.00 | 0.00 | 65 | 1018.8 |
| 20260506001527 | 43 | 0.0 | 0.0 | 0.00 | 0.00 | 0.00 | 65 | 1018.7 | |
| 20260506001027 | 43 | 0.0 | 0.0 | 0.00 | 0.00 | 0.00 | 66 | 1018.6 | |
| 20260506000527 | 43 | 162 | 1.0 | 2.0 | 0.00 | 0.00 | 0.00 | 66 | 1018.6 |
| 20260506000027 | 43 | 162 | 1.0 | 2.0 | 0.00 | 0.00 | 0.00 | 66 | 1018.6 |
| 20260505235527 | 43 | 186 | 4.0 | 6.0 | 0.00 | 0.00 | 0.00 | 66 | 1018.5 |
| 20260505235027 | 43 | 186 | 4.0 | 6.0 | 0.00 | 0.00 | 0.00 | 66 | 1018.7 |
| 20260505234527 | 43 | 178 | 2.0 | 3.0 | 0.00 | 0.00 | 0.00 | 66 | 1018.9 |
| 20260505234027 | 43 | 187 | 5.0 | 9.0 | 0.00 | 0.00 | 0.00 | 65 | 1018.8 |
| 20260505233527 | 43 | 0.0 | 0.0 | 0.00 | 0.00 | 0.00 | 65 | 1018.9 | |
| 20260505233027 | 43 | 0.0 | 0.0 | 0.00 | 0.00 | 0.00 | 66 | 1019.0 | |
| 20260505232527 | 44 | 0.0 | 0.0 | 0.00 | 0.00 | 0.00 | 67 | 1018.9 | |
| 20260505232027 | 44 | 0.0 | 0.0 | 0.00 | 0.00 | 0.00 | 66 | 1018.8 | |
| 20260505231527 | 44 | 0.0 | 0.0 | 0.00 | 0.00 | 0.00 | 66 | 1018.8 | |
| 20260505231027 | 44 | 0.0 | 0.0 | 0.00 | 0.00 | 0.00 | 66 | 1018.9 | |
| 20260505230527 | 44 | 0.0 | 0.0 | 0.00 | 0.00 | 0.00 | 67 | 1018.9 | |
| 20260505230027 | 44 | 0.0 | 0.0 | 0.00 | 0.00 | 0.00 | 67 | 1019.1 | |
| 20260505225527 | 44 | 180 | 5.0 | 6.0 | 0.00 | 0.00 | 0.00 | 67 | 1018.8 |
| 20260505225027 | 44 | 180 | 5.0 | 6.0 | 0.00 | 0.00 | 0.00 | 67 | 1019.2 |
| 20260505224527 | 44 | 0.0 | 0.0 | 0.00 | 0.00 | 0.00 | 68 | 1019.0 | |
| 20260505224027 | 44 | 0.0 | 0.0 | 0.00 | 0.00 | 0.00 | 67 | 1018.9 | |
| 20260505223527 | 44 | 0.0 | 0.0 | 0.00 | 0.00 | 0.00 | 68 | 1018.9 | |
| 20260505223027 | 44 | 0.0 | 0.0 | 0.00 | 0.00 | 0.00 | 68 | 1019.0 | |
| 20260505222527 | 44 | 0.0 | 0.0 | 0.00 | 0.00 | 0.00 | 67 | 1019.0 | |
| 20260505222027 | 44 | 69 | 7.0 | 10.0 | 0.00 | 0.00 | 0.00 | 67 | 1019.2 |
| 20260505221527 | 44 | 69 | 7.0 | 10.0 | 0.00 | 0.00 | 0.00 | 67 | 1018.9 |
| 20260505221027 | 44 | 135 | 2.0 | 2.0 | 0.00 | 0.00 | 0.00 | 67 | 1019.1 |
| 20260505220527 | 44 | 135 | 2.0 | 2.0 | 0.00 | 0.00 | 0.00 | 67 | 1019.1 |
| 20260505220027 | 44 | 0.0 | 0.0 | 0.00 | 0.00 | 0.00 | 67 | 1019.1 | |
| 20260505215527 | 44 | 67 | 2.0 | 4.0 | 0.00 | 0.00 | 0.00 | 67 | 1019.2 |
| 20260505215027 | 44 | 67 | 2.0 | 4.0 | 0.00 | 0.00 | 0.00 | 66 | 1019.0 |
| 20260505214527 | 44 | 104 | 5.0 | 7.0 | 0.00 | 0.00 | 0.00 | 66 | 1019.3 |
| 20260505214027 | 44 | 79 | 4.0 | 6.0 | 0.00 | 0.00 | 0.00 | 66 | 1019.0 |
| 20260505213527 | 44 | 135 | 5.0 | 7.0 | 0.00 | 0.00 | 0.00 | 66 | 1019.1 |
| 20260505213027 | 44 | 88 | 7.0 | 8.0 | 0.00 | 0.00 | 0.00 | 66 | 1019.1 |
| 20260505212527 | 44 | 154 | 3.0 | 4.0 | 0.00 | 0.00 | 0.00 | 66 | 1019.0 |
| 20260505212027 | 44 | 154 | 3.0 | 4.0 | 0.00 | 0.00 | 0.00 | 66 | 1019.1 |
| 20260505211527 | 44 | 165 | 5.0 | 7.0 | 0.00 | 0.00 | 0.00 | 66 | 1019.0 |
| 20260505211027 | 44 | 76 | 5.0 | 6.0 | 0.00 | 0.00 | 0.00 | 66 | 1019.0 |
| 20260505210527 | 44 | 176 | 5.0 | 9.0 | 0.00 | 0.00 | 0.00 | 66 | 1018.7 |
| 20260505210027 | 44 | 176 | 5.0 | 9.0 | 0.00 | 0.00 | 0.00 | 66 | 1018.9 |
| 20260505205527 | 44 | 89 | 4.0 | 6.0 | 0.00 | 0.00 | 0.00 | 66 | 1019.0 |
| 20260505205027 | 44 | 84 | 3.0 | 6.0 | 0.00 | 0.00 | 0.00 | 67 | 1018.9 |
| 20260505204527 | 45 | 141 | 4.0 | 7.0 | 0.00 | 0.00 | 0.00 | 67 | 1019.2 |
| 20260505204027 | 45 | 189 | 6.0 | 8.0 | 0.00 | 0.00 | 0.00 | 68 | 1019.0 |
| 20260505203527 | 45 | 142 | 3.0 | 4.0 | 0.00 | 0.00 | 0.00 | 68 | 1019.0 |
| 20260505203027 | 45 | 52 | 2.0 | 4.0 | 0.00 | 0.00 | 0.00 | 68 | 1019.0 |
| 20260505202527 | 45 | 146 | 6.0 | 9.0 | 0.00 | 0.00 | 0.00 | 68 | 1018.9 |
| 20260505202027 | 45 | 108 | 6.0 | 9.0 | 0.00 | 0.00 | 0.00 | 68 | 1018.9 |
| 20260505201527 | 45 | 142 | 4.0 | 6.0 | 0.00 | 0.00 | 0.00 | 68 | 1019.1 |
| 20260505201027 | 45 | 66 | 7.0 | 9.0 | 0.00 | 0.00 | 0.00 | 68 | 1018.9 |
| 20260505200527 | 45 | 89 | 4.0 | 7.0 | 0.00 | 0.00 | 0.00 | 68 | 1019.2 |
| 20260505200027 | 45 | 89 | 4.0 | 7.0 | 0.00 | 0.00 | 0.00 | 68 | 1018.9 |
| 20260505195527 | 45 | 117 | 6.0 | 10.0 | 0.00 | 0.00 | 0.00 | 69 | 1019.2 |
| 20260505195027 | 45 | 86 | 6.0 | 8.0 | 0.00 | 0.00 | 0.00 | 69 | 1019.0 |
| 20260505194527 | 45 | 0.0 | 0.0 | 0.00 | 0.00 | 0.00 | 69 | 1019.0 | |
| 20260505194027 | 45 | 92 | 7.0 | 9.0 | 0.00 | 0.00 | 0.00 | 69 | 1018.8 |
| 20260505193527 | 45 | 92 | 7.0 | 9.0 | 0.00 | 0.00 | 0.00 | 69 | 1019.0 |
| 20260505193027 | 46 | 0.0 | 0.0 | 0.00 | 0.00 | 0.00 | 69 | 1019.0 | |
| 20260505192527 | 46 | 0.0 | 0.0 | 0.00 | 0.00 | 0.00 | 69 | 1018.6 | |
| 20260505192027 | 46 | 0.0 | 0.0 | 0.00 | 0.00 | 0.00 | 69 | 1018.7 | |
| 20260505191527 | 46 | 0.0 | 0.0 | 0.00 | 0.00 | 0.00 | 69 | 1018.8 | |
| 20260505191027 | 46 | 134 | 6.0 | 8.0 | 0.00 | 0.00 | 0.00 | 69 | 1018.9 |
| 20260505190527 | 46 | 134 | 6.0 | 8.0 | 0.00 | 0.00 | 0.00 | 69 | 1018.9 |
| 20260505190027 | 46 | 122 | 7.0 | 10.0 | 0.00 | 0.00 | 0.00 | 69 | 1018.9 |
| 20260505185527 | 46 | 0.0 | 0.0 | 0.00 | 0.00 | 0.00 | 69 | 1018.8 | |
| 20260505185027 | 46 | 174 | 10.0 | 13.0 | 0.00 | 0.00 | 0.00 | 69 | 1018.7 |
| 20260505184527 | 46 | 174 | 10.0 | 13.0 | 0.00 | 0.00 | 0.00 | 68 | 1018.9 |
| 20260505184027 | 46 | 0.0 | 0.0 | 0.00 | 0.00 | 0.00 | 68 | 1018.7 | |
| 20260505183527 | 47 | 101 | 8.0 | 9.0 | 0.00 | 0.00 | 0.00 | 68 | 1018.8 |
| 20260505183027 | 47 | 101 | 8.0 | 9.0 | 0.00 | 0.00 | 0.00 | 68 | 1018.7 |
| 20260505182527 | 47 | 0.0 | 0.0 | 0.00 | 0.00 | 0.00 | 68 | 1018.5 | |
| 20260505182027 | 47 | 0.0 | 0.0 | 0.00 | 0.00 | 0.00 | 68 | 1018.8 | |
| 20260505181527 | 47 | 0.0 | 0.0 | 0.00 | 0.00 | 0.00 | 67 | 1018.7 | |
| 20260505181027 | 47 | 0.0 | 0.0 | 0.00 | 0.00 | 0.00 | 67 | 1018.9 | |
| 20260505180526 | 47 | 0.0 | 0.0 | 0.00 | 0.00 | 0.00 | 67 | 1018.7 | |
| 20260505180027 | 47 | 0.0 | 0.0 | 0.00 | 0.00 | 0.00 | 67 | 1018.7 | |
| 20260505175526 | 47 | 0.0 | 0.0 | 0.00 | 0.00 | 0.00 | 67 | 1018.7 | |
| 20260505175026 | 47 | 65 | 5.0 | 7.0 | 0.00 | 0.00 | 0.00 | 66 | 1018.6 |
| 20260505174526 | 48 | 65 | 5.0 | 7.0 | 0.00 | 0.00 | 0.00 | 67 | 1018.6 |
| 20260505174026 | 48 | 0.0 | 0.0 | 0.00 | 0.00 | 0.00 | 66 | 1018.5 | |
| 20260505173526 | 48 | 0.0 | 0.0 | 0.00 | 0.00 | 0.00 | 66 | 1018.7 | |
| 20260505173026 | 48 | 0.0 | 0.0 | 0.00 | 0.00 | 0.00 | 66 | 1018.8 | |
| 20260505172526 | 48 | 163 | 6.0 | 8.0 | 0.00 | 0.00 | 0.00 | 65 | 1018.6 |
| 20260505172026 | 48 | 163 | 6.0 | 8.0 | 0.00 | 0.00 | 0.00 | 66 | 1018.8 |
| 20260505171526 | 48 | 170 | 4.0 | 6.0 | 0.00 | 0.00 | 0.00 | 66 | 1018.8 |
| 20260505171026 | 48 | 0.0 | 0.0 | 0.00 | 0.00 | 0.00 | 66 | 1018.8 | |
| 20260505170526 | 48 | 0.0 | 0.0 | 0.00 | 0.00 | 0.00 | 66 | 1018.8 | |
| 20260505170026 | 48 | 96 | 6.0 | 8.0 | 0.00 | 0.00 | 0.00 | 67 | 1018.8 |
| 20260505165526 | 48 | 96 | 6.0 | 8.0 | 0.00 | 0.00 | 0.00 | 67 | 1018.6 |
| 20260505165026 | 48 | 0.0 | 0.0 | 0.00 | 0.00 | 0.00 | 67 | 1018.8 | |
| 20260505164526 | 48 | 0.0 | 0.0 | 0.00 | 0.00 | 0.00 | 67 | 1018.6 | |
| 20260505164026 | 48 | 0.0 | 0.0 | 0.00 | 0.00 | 0.00 | 68 | 1018.5 | |
| 20260505163526 | 48 | 0.0 | 0.0 | 0.00 | 0.00 | 0.00 | 67 | 1018.7 | |
| 20260505163026 | 48 | 0.0 | 0.0 | 0.00 | 0.00 | 0.00 | 67 | 1018.6 | |
| 20260505162526 | 48 | 103 | 6.0 | 8.0 | 0.00 | 0.00 | 0.00 | 68 | 1018.4 |
| 20260505162026 | 48 | 103 | 6.0 | 8.0 | 0.00 | 0.00 | 0.00 | 68 | 1018.3 |
| 20260505161526 | 48 | 0.0 | 0.0 | 0.00 | 0.00 | 0.00 | 68 | 1018.6 | |
| 20260505161026 | 48 | 0.0 | 0.0 | 0.00 | 0.00 | 0.00 | 69 | 1018.6 | |
| 20260505160526 | 48 | 0.0 | 0.0 | 0.00 | 0.00 | 0.00 | 70 | 1018.6 | |
| 20260505153100 | 49 | 160 | 7.0 | 9.0 | 0.00 | 0.00 | 0.00 | 69 | 1018.5 |
| 20260505152600 | 49 | 0.0 | 0.0 | 0.00 | 0.00 | 0.00 | 68 | 1018.3 | |
| 20260505152101 | 49 | 0.0 | 0.0 | 0.00 | 0.00 | 0.00 | 68 | 1018.5 | |
| 20260505151600 | 49 | 0.0 | 0.0 | 0.00 | 0.00 | 0.00 | 68 | 1018.4 | |
| 20260505151100 | 50 | 0.0 | 0.0 | 0.00 | 0.00 | 0.00 | 68 | 1018.8 | |
| 20260505150600 | 50 | 161 | 8.0 | 11.0 | 0.00 | 0.00 | 0.00 | 67 | 1018.5 |
| 20260505140600 | 52 | 0.0 | 0.0 | 0.00 | 0.00 | 0.00 | 66 | 1018.3 | |
| 20260505124600 | 51 | 0.0 | 0.0 | 0.00 | 0.00 | 0.00 | 71 | 1017.9 | |
| 20260505124100 | 51 | 0.0 | 0.0 | 0.00 | 0.00 | 0.00 | 72 | 1017.5 |